FDX430 KICT-KDFW

Flight info

Callsign FDX430
Flight time 0h 51m
Altitude 30000
Route JAMEY PER IBAKE VKTRY2
Aircraft MD11/H-SDE1E2E3FGHIJ2J3J4J5M1RWXY/LB1D1

Departure

Time 2026-04-26 18:22
Airport Wichita Dwight D. Eisenhower National Airport (KICT)

Arrival

Time 2026-04-26 19:14
Airport Dallas Fort Worth International Airport (KDFW)
Time Latitude Longitude Altitude Speed Heading
2026-04-26 18:08 37.65838 -97.43229 1337 ft 0 kts 109°
2026-04-26 18:15 37.65840 -97.43243 1339 ft 2 kts 82°
2026-04-26 18:15 37.65836 -97.43262 1339 ft 2 kts 50°
2026-04-26 18:15 37.65824 -97.43276 1343 ft 2 kts 31°
2026-04-26 18:16 37.65809 -97.43286 1336 ft 2 kts 23°
2026-04-26 18:16 37.65803 -97.43290 1343 ft 0 kts 22°
2026-04-26 18:18 37.65826 -97.43277 1341 ft 9 kts 22°
2026-04-26 18:18 37.65874 -97.43282 1339 ft 5 kts 325°
2026-04-26 18:18 37.65892 -97.43312 1338 ft 3 kts 305°
2026-04-26 18:19 37.65908 -97.43330 1338 ft 4 kts 325°
2026-04-26 18:19 37.65949 -97.43333 1343 ft 8 kts 15°
2026-04-26 18:19 37.66021 -97.43301 1343 ft 12 kts 19°
2026-04-26 18:19 37.66091 -97.43282 1347 ft 8 kts 355°
2026-04-26 18:20 37.66104 -97.43287 1345 ft 0 kts 337°
2026-04-26 18:21 37.66128 -97.43321 1345 ft 9 kts 301°
2026-04-26 18:21 37.66127 -97.43393 1346 ft 7 kts 240°
2026-04-26 18:21 37.66091 -97.43420 1346 ft 0 kts 200°
2026-04-26 18:21 37.66018 -97.43453 1343 ft 46 kts 199°
2026-04-26 18:22 37.65423 -97.43721 1343 ft 132 kts 199°
2026-04-26 18:22 37.64367 -97.44198 1501 ft 177 kts 193°
2026-04-26 18:22 37.63201 -97.44658 2372 ft 171 kts 194°
2026-04-26 18:22 37.62084 -97.44923 3447 ft 163 kts 178°
2026-04-26 18:23 37.60949 -97.44746 4282 ft 167 kts 173°
2026-04-26 18:23 37.59738 -97.44509 4748 ft 191 kts 173°
2026-04-26 18:23 37.58340 -97.44246 4901 ft 215 kts 173°
2026-04-26 18:23 37.56805 -97.43963 5032 ft 229 kts 173°
2026-04-26 18:24 37.55179 -97.43668 5223 ft 248 kts 173°
2026-04-26 18:24 37.53463 -97.43358 5974 ft 248 kts 174°
2026-04-26 18:24 37.51749 -97.43052 6767 ft 250 kts 174°
2026-04-26 18:24 37.50018 -97.42748 7519 ft 252 kts 174°
2026-04-26 18:25 37.48264 -97.42443 8277 ft 256 kts 175°
2026-04-26 18:25 37.46479 -97.42136 9013 ft 261 kts 174°
2026-04-26 18:25 37.44667 -97.41823 9774 ft 265 kts 174°
2026-04-26 18:25 37.42807 -97.41504 10224 ft 281 kts 175°
2026-04-26 18:26 37.40773 -97.41160 10361 ft 308 kts 175°
2026-04-26 18:26 37.38559 -97.40786 10485 ft 334 kts 174°
2026-04-26 18:26 37.36219 -97.40386 11031 ft 343 kts 175°
2026-04-26 18:26 37.33830 -97.39974 11745 ft 349 kts 175°
2026-04-26 18:27 37.31399 -97.39556 12459 ft 355 kts 175°
2026-04-26 18:27 37.28949 -97.38950 13126 ft 363 kts 169°
2026-04-26 18:27 37.26503 -97.38037 13773 ft 370 kts 166°
2026-04-26 18:27 37.24072 -97.37007 14393 ft 375 kts 166°
2026-04-26 18:28 37.21588 -97.35918 15049 ft 380 kts 166°
2026-04-26 18:28 37.19075 -97.34815 15680 ft 385 kts 166°
2026-04-26 18:28 37.16531 -97.33707 16303 ft 389 kts 166°
2026-04-26 18:28 37.13955 -97.32595 16932 ft 394 kts 167°
2026-04-26 18:29 37.11349 -97.31476 17550 ft 398 kts 167°
2026-04-26 18:29 37.08710 -97.30348 18145 ft 403 kts 167°
2026-04-26 18:29 37.06043 -97.29210 18661 ft 407 kts 167°
2026-04-26 18:29 37.03349 -97.28063 19171 ft 411 kts 167°
2026-04-26 18:30 37.00634 -97.26908 19642 ft 415 kts 167°
2026-04-26 18:30 36.97875 -97.25736 20072 ft 420 kts 167°
2026-04-26 18:30 36.95091 -97.24554 20579 ft 425 kts 167°
2026-04-26 18:30 36.92278 -97.23359 21097 ft 429 kts 167°
2026-04-26 18:31 36.89443 -97.22156 21599 ft 433 kts 167°
2026-04-26 18:31 36.86576 -97.20941 22087 ft 437 kts 167°
2026-04-26 18:31 36.83689 -97.19719 22594 ft 441 kts 167°
2026-04-26 18:31 36.80773 -97.18485 23070 ft 445 kts 167°
2026-04-26 18:32 36.77823 -97.17244 23515 ft 448 kts 168°
2026-04-26 18:32 36.74810 -97.16295 23877 ft 444 kts 178°
2026-04-26 18:32 36.71755 -97.16174 24312 ft 437 kts 190°
2026-04-26 18:32 36.68787 -97.16633 24727 ft 435 kts 195°
2026-04-26 18:33 36.65809 -97.17326 25181 ft 436 kts 197°
2026-04-26 18:33 36.62829 -97.18069 25614 ft 439 kts 197°
2026-04-26 18:33 36.59820 -97.18794 26045 ft 442 kts 197°
2026-04-26 18:33 36.56786 -97.19484 26473 ft 445 kts 196°
2026-04-26 18:34 36.53722 -97.20147 26885 ft 448 kts 196°
2026-04-26 18:34 36.50641 -97.20790 27317 ft 450 kts 196°
2026-04-26 18:34 36.47542 -97.21425 27735 ft 452 kts 196°
2026-04-26 18:34 36.44428 -97.22058 28143 ft 455 kts 196°
2026-04-26 18:35 36.41299 -97.22693 28543 ft 457 kts 196°
2026-04-26 18:35 36.38154 -97.23332 28956 ft 458 kts 196°
2026-04-26 18:35 36.35005 -97.23969 29366 ft 457 kts 196°
2026-04-26 18:35 36.31913 -97.24594 29688 ft 457 kts 196°
2026-04-26 18:36 36.25595 -97.25880 29769 ft 463 kts 196°
2026-04-26 18:36 36.19235 -97.27169 29783 ft 463 kts 196°
2026-04-26 18:37 36.12878 -97.28453 29786 ft 463 kts 196°
2026-04-26 18:37 36.06523 -97.29737 29776 ft 463 kts 196°
2026-04-26 18:38 36.00165 -97.31019 29758 ft 463 kts 196°
2026-04-26 18:38 35.93795 -97.32303 29763 ft 464 kts 196°
2026-04-26 18:39 35.87420 -97.33581 29757 ft 464 kts 196°
2026-04-26 18:39 35.81045 -97.34855 29776 ft 464 kts 196°
2026-04-26 18:40 35.74673 -97.36130 29776 ft 464 kts 196°
2026-04-26 18:40 35.68299 -97.37405 29772 ft 464 kts 196°
2026-04-26 18:41 35.61930 -97.38678 29781 ft 464 kts 196°
2026-04-26 18:41 35.55557 -97.39949 29789 ft 464 kts 196°
2026-04-26 18:42 35.49219 -97.41211 29792 ft 465 kts 196°
2026-04-26 18:42 35.42822 -97.42483 29794 ft 466 kts 196°
2026-04-26 18:43 35.36427 -97.43752 29794 ft 465 kts 196°
2026-04-26 18:43 35.30026 -97.45020 29796 ft 466 kts 196°
2026-04-26 18:44 35.23629 -97.46286 29790 ft 466 kts 196°
2026-04-26 18:44 35.17220 -97.47552 29793 ft 467 kts 196°
2026-04-26 18:45 35.10809 -97.48815 29752 ft 467 kts 196°
2026-04-26 18:45 35.04432 -97.50034 29751 ft 468 kts 194°
2026-04-26 18:46 34.97909 -97.50773 29748 ft 473 kts 191°
2026-04-26 18:46 34.91335 -97.51288 29755 ft 474 kts 191°
2026-04-26 18:47 34.85830 -97.51725 29750 ft 473 kts 191°
2026-04-26 18:47 34.79264 -97.52276 29749 ft 473 kts 191°
2026-04-26 18:48 34.72697 -97.52840 29741 ft 473 kts 191°
2026-04-26 18:48 34.66125 -97.53405 29751 ft 473 kts 191°
2026-04-26 18:49 34.59554 -97.53967 29751 ft 474 kts 191°
2026-04-26 18:49 34.53019 -97.54525 29754 ft 473 kts 191°
2026-04-26 18:50 34.46451 -97.55085 29757 ft 472 kts 191°
2026-04-26 18:50 34.43214 -97.55355 29417 ft 458 kts 191°
2026-04-26 18:50 34.40066 -97.55613 28890 ft 451 kts 191°
2026-04-26 18:51 34.36949 -97.55877 28299 ft 448 kts 191°
2026-04-26 18:51 34.33839 -97.56145 27732 ft 448 kts 191°
2026-04-26 18:51 34.30723 -97.56416 27175 ft 449 kts 191°
2026-04-26 18:51 34.27595 -97.56687 26621 ft 452 kts 191°
2026-04-26 18:52 34.24458 -97.56957 26056 ft 453 kts 190°
2026-04-26 18:52 34.21350 -97.57216 25654 ft 438 kts 190°
2026-04-26 18:52 34.18353 -97.57458 25269 ft 428 kts 190°
2026-04-26 18:52 34.15397 -97.57704 24697 ft 422 kts 190°
2026-04-26 18:53 34.12478 -97.57950 24127 ft 418 kts 190°
2026-04-26 18:53 34.09589 -97.58197 23560 ft 415 kts 190°
2026-04-26 18:53 34.06725 -97.58441 22941 ft 411 kts 190°
2026-04-26 18:53 34.03881 -97.58683 22334 ft 407 kts 190°
2026-04-26 18:54 34.01071 -97.58920 21767 ft 403 kts 190°
2026-04-26 18:54 33.98326 -97.59151 21221 ft 399 kts 190°
2026-04-26 18:54 33.95581 -97.59380 20790 ft 393 kts 190°
2026-04-26 18:54 33.92852 -97.59611 20158 ft 393 kts 191°
2026-04-26 18:55 33.90149 -97.59837 19572 ft 387 kts 191°
2026-04-26 18:55 33.87444 -97.60063 19017 ft 382 kts 191°
2026-04-26 18:55 33.84838 -97.60282 18480 ft 378 kts 191°
2026-04-26 18:55 33.82229 -97.60500 17943 ft 374 kts 191°
2026-04-26 18:56 33.79648 -97.60717 17449 ft 369 kts 191°
2026-04-26 18:56 33.77094 -97.60932 16967 ft 367 kts 191°
2026-04-26 18:56 33.74548 -97.61147 16462 ft 365 kts 191°
2026-04-26 18:56 33.72023 -97.61360 15955 ft 362 kts 191°
2026-04-26 18:57 33.69525 -97.61569 15555 ft 358 kts 190°
2026-04-26 18:57 33.67846 -97.61710 15404 ft 358 kts 190°
2026-04-26 18:57 33.64649 -97.61971 15163 ft 338 kts 190°
2026-04-26 18:57 33.62319 -97.62162 14741 ft 334 kts 191°
2026-04-26 18:58 33.60009 -97.62357 14245 ft 330 kts 191°
2026-04-26 18:58 33.57732 -97.62549 13767 ft 326 kts 190°
2026-04-26 18:58 33.55478 -97.62740 13266 ft 324 kts 190°
2026-04-26 18:58 33.53239 -97.62929 12770 ft 321 kts 190°
2026-04-26 18:59 33.51022 -97.63115 12294 ft 319 kts 190°
2026-04-26 18:59 33.48816 -97.63301 11824 ft 317 kts 189°
2026-04-26 18:59 33.46627 -97.63484 11420 ft 313 kts 189°
2026-04-26 18:59 33.44455 -97.63665 11168 ft 310 kts 189°
2026-04-26 19:00 33.42366 -97.63835 11062 ft 293 kts 189°
2026-04-26 19:00 33.40348 -97.63874 10961 ft 292 kts 180°
2026-04-26 19:00 33.38391 -97.63252 10907 ft 302 kts 158°
2026-04-26 19:00 33.36714 -97.61680 10856 ft 313 kts 136°
2026-04-26 19:01 33.35350 -97.59633 10812 ft 315 kts 130°
2026-04-26 19:01 33.34087 -97.57484 10724 ft 317 kts 129°
2026-04-26 19:01 33.32820 -97.55303 10281 ft 319 kts 129°
2026-04-26 19:01 33.31564 -97.53159 9918 ft 312 kts 129°
2026-04-26 19:02 33.30312 -97.51051 9432 ft 309 kts 130°
2026-04-26 19:02 33.29065 -97.48971 8918 ft 305 kts 130°
2026-04-26 19:02 33.27862 -97.46898 8461 ft 302 kts 123°
2026-04-26 19:02 33.27328 -97.45366 8175 ft 302 kts 108°
2026-04-26 19:03 33.26919 -97.42057 7605 ft 300 kts 96°
2026-04-26 19:03 33.26794 -97.39591 7216 ft 295 kts 95°
2026-04-26 19:03 33.26693 -97.37165 6864 ft 291 kts 96°
2026-04-26 19:03 33.26589 -97.34756 6519 ft 290 kts 96°
2026-04-26 19:04 33.26479 -97.32355 6177 ft 287 kts 96°
2026-04-26 19:04 33.26368 -97.30040 6028 ft 280 kts 96°
2026-04-26 19:04 33.26252 -97.27702 6019 ft 283 kts 97°
2026-04-26 19:04 33.26132 -97.25374 5985 ft 274 kts 97°
2026-04-26 19:05 33.25949 -97.21009 5419 ft 257 kts 97°
2026-04-26 19:05 33.25857 -97.18854 5096 ft 262 kts 96°
2026-04-26 19:05 33.25768 -97.16678 5019 ft 263 kts 97°
2026-04-26 19:06 33.25680 -97.14509 4986 ft 259 kts 98°
2026-04-26 19:06 33.25590 -97.12366 4988 ft 259 kts 97°
2026-04-26 19:06 33.25475 -97.10244 4743 ft 249 kts 104°
2026-04-26 19:06 33.24806 -97.08405 4373 ft 243 kts 133°
2026-04-26 19:07 33.23535 -97.07146 4078 ft 234 kts 151°
2026-04-26 19:07 33.22132 -97.06136 4002 ft 238 kts 153°
2026-04-26 19:07 33.20670 -97.05106 4018 ft 249 kts 152°
2026-04-26 19:07 33.19162 -97.04055 4019 ft 252 kts 153°
2026-04-26 19:08 33.17660 -97.02995 3971 ft 248 kts 155°
2026-04-26 19:08 33.16043 -97.02447 3959 ft 238 kts 177°
2026-04-26 19:08 33.14475 -97.02411 3958 ft 210 kts 182°
2026-04-26 19:08 33.13100 -97.02438 3954 ft 192 kts 182°
2026-04-26 19:09 33.11726 -97.02461 3993 ft 200 kts 181°
2026-04-26 19:09 33.10314 -97.02479 3991 ft 208 kts 182°
2026-04-26 19:09 33.08852 -97.02494 3804 ft 210 kts 181°
2026-04-26 19:09 33.07414 -97.02505 3532 ft 204 kts 181°
2026-04-26 19:10 33.06001 -97.02515 3293 ft 203 kts 181°
2026-04-26 19:10 33.04616 -97.02523 3037 ft 187 kts 180°
2026-04-26 19:10 33.03375 -97.02530 2802 ft 175 kts 180°
2026-04-26 19:10 33.02181 -97.02536 2596 ft 169 kts 180°
2026-04-26 19:11 33.01004 -97.02543 2372 ft 170 kts 180°
2026-04-26 19:11 32.99822 -97.02550 2173 ft 169 kts 180°
2026-04-26 19:11 32.98643 -97.02556 2009 ft 168 kts 179°
2026-04-26 19:11 32.97534 -97.02562 1720 ft 151 kts 179°
2026-04-26 19:12 32.96482 -97.02567 1554 ft 152 kts 178°
2026-04-26 19:12 32.95411 -97.02573 1345 ft 156 kts 177°
2026-04-26 19:12 32.94321 -97.02580 1140 ft 157 kts 181°
2026-04-26 19:12 32.93248 -97.02589 955 ft 150 kts 177°
2026-04-26 19:13 32.92171 -97.02597 754 ft 157 kts 179°
2026-04-26 19:13 32.91159 -97.02599 619 ft 127 kts 179°
2026-04-26 19:13 32.90418 -97.02602 614 ft 89 kts 180°
2026-04-26 19:13 32.89900 -97.02607 615 ft 62 kts 180°
2026-04-26 19:14 32.89519 -97.02608 614 ft 48 kts 180°
2026-04-26 19:14 32.89220 -97.02591 614 ft 38 kts 166°
2026-04-26 19:14 32.89005 -97.02470 619 ft 31 kts 150°
2026-04-26 19:14 32.88925 -97.02416 622 ft 1 kts 150°
2026-04-26 19:15 32.88896 -97.02397 614 ft 10 kts 150°
2026-04-26 19:16 32.88866 -97.02360 613 ft 5 kts 115°
2026-04-26 19:16 32.88868 -97.02327 620 ft 3 kts 70°
2026-04-26 19:16 32.88885 -97.02307 614 ft 5 kts 37°
2026-04-26 19:16 32.88953 -97.02293 613 ft 15 kts
2026-04-26 19:17 32.89079 -97.02293 613 ft 19 kts
2026-04-26 19:17 32.89207 -97.02292 614 ft 18 kts 360°
2026-04-26 19:17 32.89328 -97.02292 622 ft 17 kts
2026-04-26 19:17 32.89442 -97.02291 620 ft 16 kts
2026-04-26 19:18 32.89548 -97.02290 613 ft 15 kts
2026-04-26 19:18 32.89652 -97.02289 614 ft 15 kts
2026-04-26 19:18 32.89752 -97.02288 614 ft 14 kts
2026-04-26 19:18 32.89845 -97.02288 615 ft 13 kts 359°
2026-04-26 19:19 32.89935 -97.02289 618 ft 13 kts 359°
2026-04-26 19:19 32.90029 -97.02290 613 ft 14 kts 359°
2026-04-26 19:19 32.90126 -97.02290 614 ft 14 kts
2026-04-26 19:19 32.90224 -97.02287 614 ft 14 kts
2026-04-26 19:20 32.90325 -97.02286 613 ft 14 kts
2026-04-26 19:20 32.90390 -97.02285 614 ft 14 kts
2026-04-26 19:20 32.90517 -97.02285 614 ft 15 kts 359°
2026-04-26 19:20 32.90651 -97.02285 612 ft 21 kts
2026-04-26 19:21 32.90794 -97.02284 615 ft 20 kts
2026-04-26 19:21 32.90928 -97.02284 624 ft 16 kts
2026-04-26 19:21 32.91000 -97.02320 618 ft 10 kts 298°
2026-04-26 19:21 32.91004 -97.02385 611 ft 6 kts 277°
2026-04-26 19:22 32.91024 -97.02408 617 ft 4 kts 334°
2026-04-26 19:22 32.91080 -97.02407 614 ft 13 kts
2026-04-26 19:22 32.91184 -97.02403 620 ft 14 kts
2026-04-26 19:22 32.91266 -97.02402 614 ft 11 kts
2026-04-26 19:23 32.91341 -97.02401 614 ft 11 kts
2026-04-26 19:23 32.91422 -97.02400 614 ft 12 kts
2026-04-26 19:23 32.91508 -97.02399 614 ft 13 kts
2026-04-26 19:23 32.91598 -97.02399 613 ft 13 kts
2026-04-26 19:24 32.91687 -97.02377 620 ft 12 kts 39°
2026-04-26 19:24 32.91685 -97.02302 620 ft 9 kts 121°
2026-04-26 19:24 32.91597 -97.02203 612 ft 9 kts 143°
2026-04-26 19:25 32.91549 -97.02162 618 ft 8 kts 144°
2026-04-26 19:25 32.91534 -97.02150 613 ft 8 kts 144°
2026-04-26 19:25 32.91466 -97.02079 611 ft 8 kts 135°
2026-04-26 19:25 32.91458 -97.02044 622 ft 3 kts 81°
2026-04-26 19:26 32.91470 -97.02029 616 ft 6 kts 46°
2026-04-26 19:26 32.91502 -97.01989 620 ft 0 kts 46°